Wind_Speed
11 10 10 10 9 9 8 8 8 8 8 9 10 10 10 10 10 10 9 9 8 7 7 7 7 7 7 8 8 9 10 11 11 13 13 8 9 12 14 17 20 22 22 22 21 20 17 15 14 14 13 11 9 8 6 5 4 3 4 2 2 4 5 6 7 5 1 5 11 11 9 8 9 9 8 8 9 12 11 8 8 7 8 13 20 27 29 27
11 11 10 9 9 9 8 8 7 7 7 8 9 10 10 10 10 10 10 10 9 8 7 7 7 7 7 7 7 8 9 10 13 15 11 6 9 15 16 18 21 23 23 25 24 21 20 18 18 16 14 11 8 8 6 5 5 4 3 1 3 5 6 7 8 6 2 5 10 11 9 8 8 10 10 9 11 13 11 10 11 11 14 18 25 29 29 28
12 11 11 10 9 9 9 9 8 7 7 7 8 9 10 10 10 11 11 11 10 9 8 7 7 6 7 6 6 7 7 9 12 11 9 9 12 16 18 19 22 23 24 24 23 20 18 18 19 17 14 10 8 9 6 5 5 4 4 0 6 4 5 7 9 7 5 5 8 10 9 8 8 9 10 9 12 12 10 12 13 15 19 23 27 29 29 28
12 11 12 11 11 10 9 9 9 8 7 8 8 9 10 10 10 11 10 11 10 9 8 7 7 6 6 5 5 5 6 8 5 3 5 9 12 16 19 20 21 24 23 20 19 17 14 16 18 16 13 9 9 9 7 7 5 3 3 2 6 2 3 7 8 6 5 3 7 10 10 9 9 9 9 10 10 8 9 13 14 18 22 26 30 29 29 28
12 12 12 12 11 11 10 10 9 9 8 8 8 9 9 10 11 11 10 10 10 9 8 7 7 6 5 4 4 3 4 4 3 1 5 6 11 15 19 20 22 25 24 20 18 16 14 16 17 14 12 8 10 9 8 10 6 3 4 1 2 2 3 6 7 5 5 2 7 10 9 9 10 8 8 10 5 2 7 12 15 21 24 28 31 29 28 27
12 12 12 12 12 11 11 10 10 9 9 8 9 9 10 10 11 11 11 10 9 9 8 7 6 5 4 4 3 2 4 2 3 3 4 5 10 15 19 21 23 25 25 23 19 17 16 16 16 14 12 9 9 8 7 10 7 4 4 1 1 2 4 5 5 3 3 2 6 9 8 9 10 7 8 9 3 4 5 12 16 21 25 28 30 28 28 28
13 12 12 12 12 12 11 11 11 11 10 9 9 10 10 11 11 12 12 10 9 8 8 6 6 5 4 3 3 3 6 5 5 4 3 4 9 15 20 22 24 25 25 23 21 19 17 17 17 14 11 8 9 9 5 8 10 6 3 1 2 3 4 6 5 2 0 3 6 8 8 10 10 6 7 8 4 4 7 13 16 21 24 27 27 27 27 27
13 13 13 12 12 11 11 12 12 12 11 10 10 10 11 11 12 12 11 10 8 8 7 6 5 4 3 2 3 4 6 4 3 2 3 4 11 15 21 24 24 24 24 23 22 20 18 18 17 13 10 6 8 10 6 7 10 9 6 2 4 5 5 6 5 3 2 4 7 9 8 10 10 6 7 8 6 7 10 15 18 20 24 25 25 26 26 25
14 14 13 13 12 11 11 11 12 12 12 10 10 11 12 12 12 11 10 9 7 6 6 6 4 3 3 1 3 6 5 4 3 2 4 4 11 17 22 24 24 23 22 22 20 20 17 17 17 11 7 5 6 10 9 7 6 6 7 5 6 7 6 7 4 3 4 6 8 9 8 9 10 6 7 9 8 10 13 16 19 20 23 23 23 24 25 25
14 14 14 13 12 12 12 11 12 12 12 11 11 11 11 11 11 10 9 7 6 5 4 5 3 3 2 1 5 5 5 5 3 4 6 6 12 19 22 23 24 22 21 21 19 19 16 14 15 8 4 5 7 8 10 7 0 2 6 7 8 7 6 5 1 6 7 8 9 8 7 9 10 7 6 10 10 12 15 17 18 19 21 22 22 23 23 23
15 15 14 14 13 13 12 12 12 12 12 12 11 11 11 11 11 9 7 5 5 4 3 3 2 3 1 3 7 3 6 6 5 6 7 8 11 17 19 21 23 20 20 20 18 18 14 10 11 9 3 4 7 7 10 7 2 2 6 7 7 4 2 3 6 10 8 7 8 7 7 9 10 7 6 12 13 14 16 17 18 18 19 20 21 22 21 22
16 16 15 15 14 13 13 13 13 12 12 11 10 11 10 10 10 7 5 4 4 3 2 2 2 2 1 4 8 3 5 7 7 7 9 9 10 14 16 18 19 17 18 18 17 15 12 9 11 11 3 2 7 5 6 8 5 5 7 6 5 5 3 4 7 9 7 7 9 8 6 7 9 7 8 14 14 15 16 17 18 17 17 19 20 21 20 21
18 17 17 16 15 15 14 14 13 13 12 10 10 10 10 11 8 5 4 3 3 3 1 1 1 1 1 4 6 6 7 9 9 8 10 11 10 12 14 16 15 13 15 15 15 13 10 9 12 11 4 4 7 2 3 7 7 7 7 6 5 6 5 5 7 8 7 8 11 9 3 5 9 9 11 14 15 16 16 16 17 16 16 18 19 20 19 20
19 18 18 17 16 16 15 15 14 13 11 10 9 10 11 10 6 4 4 2 2 1 1 2 1 1 2 3 5 9 8 9 11 9 11 12 10 12 14 15 14 12 11 11 12 12 9 9 11 9 6 7 4 1 3 7 7 7 6 5 6 5 6 7 7 9 7 7 11 9 3 4 9 11 13 15 16 16 16 15 16 16 16 17 18 19 19 20
19 18 18 18 17 16 15 16 14 12 11 9 8 9 11 9 5 3 2 3 2 1 1 1 1 1 4 4 6 10 8 8 11 10 10 12 11 11 12 13 12 11 9 8 9 10 8 9 10 9 8 6 4 5 7 5 7 7 5 7 7 4 5 7 7 8 5 6 11 8 2 4 8 11 13 14 16 16 15 15 15 15 17 17 18 19 18 19
19 18 18 18 17 16 15 16 15 12 10 8 6 8 9 8 3 2 4 4 3 1 1 1 1 1 5 3 8 9 8 7 9 11 11 11 10 10 12 12 11 10 9 7 8 9 8 9 10 9 8 6 6 8 6 5 7 7 7 8 8 6 6 7 7 7 4 5 10 8 3 4 7 9 13 14 15 16 15 15 16 15 16 17 18 19 18 19
21 20 19 19 18 16 13 15 14 11 9 6 4 6 7 5 2 2 3 4 1 1 2 1 2 3 5 3 8 9 9 9 10 12 12 11 9 9 13 13 11 11 9 7 8 10 10 10 8 7 7 7 8 8 7 8 8 7 8 7 6 5 5 6 7 8 7 5 7 8 4 4 8 9 12 13 14 15 14 14 16 15 15 16 17 18 19 19
22 21 21 19 17 15 12 13 13 10 8 4 3 5 5 4 2 1 2 2 1 1 2 4 4 4 4 8 9 9 10 10 11 12 13 12 10 10 13 13 13 13 11 9 10 12 11 10 9 7 7 8 7 8 8 8 9 10 10 8 6 5 4 4 6 8 9 6 5 7 5 2 7 9 10 12 13 15 14 14 15 15 15 16 17 18 18 19
22 22 20 17 15 14 11 11 12 9 6 3 2 4 5 4 5 4 4 3 3 4 1 5 9 3 2 10 8 7 9 11 12 12 14 14 12 11 11 12 15 15 13 10 11 14 12 9 9 8 9 10 9 12 9 4 7 11 12 10 7 7 4 5 6 6 8 7 5 6 5 4 7 9 10 12 13 14 13 14 14 15 16 16 16 17 17 18
22 20 17 16 14 13 11 10 10 7 5 4 2 4 4 4 5 5 6 8 10 10 6 4 9 6 1 9 6 5 9 11 11 12 15 16 15 13 12 14 15 14 11 9 10 14 14 9 9 9 10 12 13 13 7 2 4 7 10 9 6 6 5 6 6 6 6 6 5 6 5 4 6 9 11 12 14 14 14 15 15 16 17 17 17 17 17 18
20 18 16 15 14 13 11 10 9 6 5 5 4 4 3 3 3 0 2 8 10 10 10 7 9 9 4 4 3 5 8 11 11 13 16 16 16 14 12 14 13 10 10 11 10 12 12 9 10 12 11 12 13 11 6 2 3 4 7 8 7 6 5 6 5 5 4 5 4 4 5 5 5 7 11 13 14 15 16 17 17 18 18 17 17 17 17 18
19 17 15 15 14 13 10 9 7 5 6 7 5 4 2 2 2 4 5 6 5 6 9 8 9 9 6 4 4 6 9 11 13 14 16 17 17 13 12 13 10 8 10 11 10 9 10 10 11 13 10 10 11 9 8 7 6 6 6 7 7 6 5 6 4 5 4 4 4 4 5 5 6 6 10 14 14 14 17 17 17 19 19 18 18 18 18 18
18 16 15 15 14 12 10 7 4 4 7 8 5 4 3 2 1 5 6 6 4 4 6 8 9 8 7 6 5 8 10 11 14 15 17 18 17 12 12 13 9 9 11 11 9 8 9 10 11 12 9 11 11 9 10 8 6 7 7 7 7 7 6 4 6 7 4 3 2 2 4 4 5 6 9 13 15 14 15 16 16 18 19 19 19 19 19 19
17 15 15 16 15 14 10 6 3 5 9 9 5 5 5 2 2 5 5 6 3 3 4 6 7 6 6 6 7 9 10 9 11 15 19 18 15 11 11 12 10 8 10 12 13 10 8 7 10 12 11 12 11 10 11 8 7 9 8 8 7 8 7 1 5 6 5 5 4 3 5 5 6 7 7 10 13 12 13 14 14 16 17 16 17 18 19 19
16 15 16 17 17 16 10 3 0 5 9 8 5 6 4 1 2 4 5 6 3 4 3 5 6 5 6 7 7 7 9 7 6 14 20 17 14 11 9 10 9 7 11 14 12 10 7 5 10 12 12 13 11 10 11 10 8 9 10 10 5 5 6 3 4 4 5 7 7 5 7 5 7 6 3 4 8 9 9 11 12 13 14 14 16 18 19 19
15 16 16 16 17 16 8 3 1 5 9 6 5 6 4 2 3 4 5 5 4 4 3 6 6 7 8 8 7 7 10 7 5 11 17 13 12 10 7 8 7 6 11 12 8 6 5 8 11 12 13 14 11 9 12 11 8 7 9 11 7 4 6 5 4 5 6 4 5 5 7 4 8 5 4 3 4 6 7 7 9 11 12 14 16 17 18 19
16 16 17 15 15 13 6 2 1 4 7 5 6 6 4 3 5 5 6 5 3 2 3 5 4 7 7 7 9 7 7 11 9 8 11 12 12 9 7 8 6 5 9 9 6 5 6 9 12 12 13 13 10 9 11 11 10 4 7 9 11 8 8 8 7 7 5 1 3 6 7 5 5 6 4 3 5 6 6 4 7 9 11 14 15 16 17 18
16 17 17 15 12 11 6 2 3 4 4 6 8 7 5 5 5 5 6 3 3 1 2 4 3 6 5 6 9 4 6 14 10 6 8 12 11 9 10 8 8 8 10 9 6 7 9 10 11 12 12 10 9 9 9 11 12 3 6 6 9 8 10 9 8 7 4 2 5 8 6 6 4 7 5 5 7 6 5 2 3 7 11 14 15 17 18 18
16 16 16 14 10 9 7 4 4 3 4 5 7 7 6 6 5 6 6 1 2 1 2 4 5 7 7 8 7 5 7 6 3 7 9 10 9 8 6 4 8 9 12 12 6 6 9 9 9 11 10 8 10 10 9 11 11 2 3 6 6 6 8 8 8 7 5 4 8 9 9 8 4 6 4 4 6 4 4 2 1 3 7 12 15 16 18 20
14 14 13 12 10 8 6 4 2 2 4 4 4 4 5 5 5 6 4 1 1 3 3 3 5 7 11 10 6 6 7 6 7 11 9 7 9 7 2 2 6 6 10 12 7 4 7 7 7 7 4 2 6 7 7 11 10 3 4 7 6 6 6 7 7 6 5 6 10 10 10 10 5 5 4 4 5 5 4 3 3 5 7 8 13 16 18 20
13 13 12 10 9 8 5 3 2 2 2 3 3 4 5 6 6 5 2 2 1 4 4 4 6 8 12 11 7 7 7 7 7 9 8 7 8 8 5 5 7 6 7 9 6 6 9 9 7 3 3 2 4 5 5 10 10 6 6 7 7 6 5 6 6 6 7 7 11 12 9 10 8 3 6 5 6 6 5 5 6 6 8 8 10 15 18 19
12 13 12 10 8 7 5 2 3 2 2 3 3 5 6 6 4 0 3 2 2 2 2 3 6 9 10 8 7 8 7 6 5 5 7 6 5 4 2 1 4 5 7 8 8 8 8 7 7 6 2 2 7 7 6 9 10 8 8 8 8 7 6 8 8 7 8 6 8 11 9 7 3 5 6 6 7 7 7 6 7 8 8 8 8 11 16 18
10 12 12 10 8 7 5 4 3 3 5 5 5 7 7 3 2 2 3 1 1 3 2 2 6 9 10 10 8 8 7 6 5 5 6 5 6 6 5 6 4 4 5 8 9 8 6 6 8 8 5 2 7 9 6 7 10 10 9 9 8 7 8 9 9 8 9 7 6 8 7 6 5 6 5 7 8 8 8 8 8 9 8 8 7 8 14 17
8 10 11 8 7 7 6 4 2 5 8 7 7 7 5 1 4 1 2 5 4 3 2 4 7 10 10 8 7 5 6 6 4 5 6 5 5 5 5 7 7 6 4 6 8 8 7 7 6 5 3 2 5 5 3 4 10 11 9 9 8 7 7 8 8 9 9 9 8 8 7 6 6 5 5 7 9 10 10 10 10 10 9 8 7 1 9 15
8 10 12 10 8 8 6 3 1 5 8 9 7 3 1 3 4 2 4 5 3 3 5 5 7 10 9 7 6 3 2 4 5 5 6 5 5 4 3 5 8 7 4 4 5 5 5 5 5 3 3 1 1 2 6 5 8 10 9 9 8 6 6 5 6 8 9 8 8 8 4 2 6 7 7 7 10 12 11 12 13 13 12 10 10 8 2 6
8 9 12 14 12 9 5 2 2 6 7 8 4 3 4 4 4 4 5 5 5 2 4 8 7 7 8 6 7 5 2 4 6 5 7 7 7 7 5 5 7 7 5 3 3 3 3 5 6 4 3 2 2 1 2 4 4 6 9 9 4 1 4 4 4 7 8 8 8 8 6 6 7 7 7 7 9 12 12 14 15 15 15 13 12 12 10 6
7 6 10 14 13 9 6 2 3 5 6 7 1 5 3 4 5 6 5 6 5 4 4 7 3 1 7 8 6 8 8 6 4 3 4 4 5 7 6 4 5 7 7 4 1 1 1 5 6 4 5 5 2 0 2 2 4 3 7 7 3 1 4 4 3 7 9 8 7 9 10 8 7 4 5 7 9 12 12 13 15 16 17 16 15 14 12 11
4 2 7 13 13 11 8 2 3 1 5 1 6 5 2 5 6 6 6 6 4 5 6 4 1 3 5 8 7 7 7 5 4 4 4 2 2 6 6 3 5 8 8 6 3 0 2 3 7 4 4 6 3 3 5 4 3 4 2 2 3 5 7 6 5 7 10 9 7 9 11 7 2 3 4 6 9 11 11 12 14 16 18 16 16 15 14 13
3 1 4 10 11 11 8 2 2 4 2 3 6 4 3 6 8 9 7 5 3 5 4 2 2 0 2 5 7 6 2 3 5 4 2 1 2 5 7 4 4 8 9 7 3 1 3 2 5 5 4 6 4 2 3 4 3 3 4 3 4 5 5 6 7 6 8 9 8 9 9 5 2 2 4 6 8 8 9 10 11 15 17 17 17 16 15 14
5 2 3 8 11 11 6 2 2 2 2 5 5 4 3 5 7 10 9 5 3 4 3 2 2 3 5 4 6 5 4 5 5 3 3 2 3 5 7 6 6 8 8 6 3 1 3 4 3 6 6 6 3 2 3 2 0 4 6 6 6 4 3 3 6 5 5 8 8 9 9 6 4 2 4 6 6 6 7 8 10 13 16 17 17 17 16 15
5 3 4 7 10 9 4 2 5 4 4 5 5 6 4 4 6 8 9 8 6 7 6 6 5 5 6 5 5 5 5 6 5 4 5 3 3 4 7 9 8 8 7 4 1 3 2 4 3 6 6 4 4 5 4 5 5 3 1 1 2 4 4 6 8 6 5 6 5 8 8 7 4 1 3 5 6 7 8 8 9 13 15 16 17 17 17 17
4 2 5 8 8 6 3 2 6 4 4 5 5 6 4 4 5 6 7 7 7 7 7 7 8 6 5 5 6 6 5 5 5 4 5 5 6 6 7 10 8 7 6 1 2 5 4 3 2 4 4 6 7 4 3 3 4 3 3 3 2 3 4 6 7 7 6 5 4 4 7 7 4 2 4 6 8 9 10 10 10 12 14 16 17 17 17 18
6 5 7 9 5 2 1 4 6 4 5 5 4 6 6 5 7 7 7 7 7 6 6 7 7 6 6 5 5 6 5 5 5 5 6 7 7 7 8 10 8 5 5 1 2 4 4 2 2 5 5 5 6 3 1 1 3 1 3 4 3 2 3 4 4 3 6 6 4 5 6 6 4 3 6 8 10 11 11 12 12 12 14 15 17 18 18 19
6 6 8 9 4 1 2 3 5 4 5 5 5 7 7 9 10 9 9 9 7 5 6 7 7 6 6 5 5 5 3 2 4 4 4 5 5 6 8 10 8 5 5 4 3 4 3 1 1 4 6 6 6 5 4 3 2 1 4 5 4 4 3 4 3 4 5 2 3 7 5 7 6 6 7 9 11 11 12 13 13 14 15 15 17 18 19 21
1 3 7 10 9 5 4 5 4 5 6 6 7 6 6 7 9 10 10 11 10 7 6 6 7 7 6 5 6 5 3 3 4 3 4 5 5 6 8 9 9 8 8 7 6 6 2 2 2 3 5 5 5 4 2 3 3 3 4 4 5 6 4 3 2 5 6 1 3 3 5 10 10 9 8 8 9 10 12 13 14 15 15 15 17 18 18 21
2 1 4 6 9 11 9 6 4 3 4 4 5 5 5 6 7 8 9 9 10 10 8 6 5 4 5 5 7 7 7 6 5 5 5 5 5 5 7 8 9 9 7 6 7 5 0 2 4 4 3 2 3 4 4 2 3 3 3 5 5 6 5 4 4 4 3 3 3 4 9 14 14 11 9 8 8 8 10 12 13 14 15 15 16 17 18 20
2 2 3 3 4 7 7 6 5 3 1 1 2 2 4 5 5 6 7 6 7 7 7 7 5 3 4 5 6 7 8 8 8 7 6 5 4 4 4 6 8 8 4 4 5 3 1 2 3 5 6 6 6 6 5 3 3 3 3 3 4 5 5 4 1 2 2 2 4 6 9 14 14 11 9 8 8 8 9 11 12 13 13 14 15 17 19 20
3 2 3 3 2 3 4 5 5 4 4 4 2 1 3 5 5 5 6 6 5 4 3 5 6 6 6 4 3 5 7 7 7 6 4 4 3 2 3 5 7 7 4 4 5 3 2 2 2 3 5 6 6 5 4 3 3 2 2 2 3 4 4 4 5 5 5 1 6 9 9 11 12 11 9 8 7 8 9 10 11 12 13 14 15 17 19 20
5 5 4 3 2 4 5 4 3 5 6 5 3 2 4 6 6 5 5 5 6 6 4 5 7 6 5 4 3 5 4 3 5 4 3 3 2 0 1 3 5 6 4 4 5 3 3 2 3 3 5 5 4 3 2 2 1 1 1 2 1 2 3 3 4 5 5 7 10 12 11 11 10 9 9 8 6 7 8 9 10 11 13 14 15 17 18 19
4 4 4 5 6 7 5 3 2 4 4 3 3 3 4 5 7 7 5 5 6 7 6 8 9 7 7 7 6 7 6 5 5 5 2 2 1 0 1 1 2 4 4 3 3 2 3 1 3 3 4 4 3 2 1 1 1 1 1 2 2 3 3 3 4 5 5 7 10 11 10 9 7 7 9 8 6 6 6 7 9 11 12 13 15 16 17 18
7 6 3 3 4 3 2 3 2 2 3 2 2 4 4 6 8 8 7 8 8 8 8 9 10 9 9 10 9 9 8 7 7 7 3 2 2 2 2 2 2 2 2 2 2 2 2 2 4 4 4 4 4 2 1 1 2 4 4 4 5 5 4 4 4 3 3 6 9 9 7 6 6 8 9 7 6 6 5 6 8 10 12 13 14 15 16 17
7 5 1 1 1 0 1 2 1 1 2 4 3 3 5 6 6 4 5 7 8 9 8 7 8 7 7 10 10 8 7 6 7 7 5 4 5 4 4 4 3 3 3 2 1 1 0 2 4 4 4 4 5 2 1 2 5 5 4 5 5 4 4 4 4 2 1 3 5 4 4 6 7 8 7 6 5 5 5 6 7 9 10 11 12 13 14 15
Wind_Direction
349 347 343 340 335 331 332 332 325 321 322 325 328 331 334 337 338 336 332 325 322 318 307 298 297 298 292 288 286 287 289 286 285 277 269 261 227 212 201 192 190 192 183 172 179 178 168 169 169 166 169 180 192 189 194 218 238 261 265 256 66 53 48 24 16 34 54 134 138 150 157 155 147 150 148 143 143 135 131 127 128 124 118 132 140 144 149 151
356 357 356 352 345 339 336 334 327 319 316 320 323 325 330 333 335 334 332 326 323 320 309 300 294 295 297 292 292 290 290 291 290 284 271 247 217 205 196 188 189 191 180 175 182 176 168 171 169 169 174 181 177 178 194 205 217 240 275 297 72 47 53 36 20 29 30 107 138 155 162 168 153 151 160 157 148 144 136 134 134 123 122 131 139 146 150 153
1 3 4 2 358 349 344 341 333 324 316 315 317 319 324 328 332 333 332 326 322 321 310 300 295 295 298 298 301 293 295 299 295 291 270 237 214 200 192 187 186 187 182 180 180 175 175 172 168 172 181 187 175 176 191 198 207 219 252 65 81 46 52 53 29 23 28 77 144 159 164 174 158 157 172 168 158 156 147 146 145 136 139 143 146 150 152 155
4 6 7 5 2 357 354 348 340 332 322 316 314 315 318 321 325 329 330 326 321 318 311 300 296 295 298 302 301 299 304 295 275 261 259 228 211 200 189 184 183 183 180 178 177 176 176 170 170 178 189 195 182 184 191 194 200 190 240 29 77 42 28 46 29 30 37 72 155 158 166 173 165 168 178 174 165 166 161 157 153 147 149 150 151 154 156 158
2 3 3 360 357 356 356 350 344 337 330 323 317 315 315 316 319 323 325 323 319 315 310 299 296 295 298 299 293 298 290 272 144 201 266 216 207 199 185 179 179 180 177 175 175 174 172 172 176 183 197 199 180 194 199 196 216 232 235 351 58 323 357 21 18 35 44 92 154 162 173 165 163 175 190 184 157 147 167 157 152 150 153 154 155 157 159 161
359 358 356 353 351 349 348 346 341 335 334 330 323 318 313 314 315 317 321 319 316 313 307 299 295 292 296 293 284 267 258 285 45 306 276 215 208 193 181 175 175 180 180 177 173 175 176 177 182 187 200 203 187 197 200 198 222 244 215 206 287 313 337 346 358 25 53 132 160 169 168 154 165 176 192 190 94 35 137 144 149 151 155 156 156 158 161 164
356 355 351 350 347 343 341 338 334 331 332 331 326 318 313 314 312 315 318 314 313 310 304 298 291 288 293 285 286 262 251 294 331 306 298 223 197 185 179 171 174 181 181 181 179 182 182 182 190 191 197 201 193 195 186 198 218 244 249 226 285 326 322 322 337 336 38 151 163 171 163 164 178 169 180 186 112 85 127 140 148 148 153 156 157 160 162 165
353 351 349 348 345 341 338 333 329 325 326 327 323 316 312 311 312 315 316 313 310 307 301 293 289 287 282 270 292 263 233 257 296 338 358 186 176 178 176 168 173 178 180 183 182 184 183 188 194 192 201 201 191 191 180 199 210 229 252 272 292 307 315 317 318 283 183 145 158 170 173 177 181 155 169 179 135 132 138 142 147 146 154 158 159 162 163 165
350 348 347 344 342 339 336 331 325 323 325 324 319 315 312 312 316 320 317 315 308 304 298 289 289 276 266 255 276 258 203 200 223 33 38 143 165 173 172 169 171 174 179 183 184 186 184 192 195 194 217 199 181 190 191 213 202 207 245 283 298 301 320 323 307 221 165 148 163 172 171 169 170 159 166 167 143 142 143 144 148 150 156 161 163 165 166 167
350 348 345 342 340 335 333 328 323 324 325 322 318 315 315 318 323 321 319 318 307 302 294 288 284 263 263 162 251 247 146 168 168 73 67 119 159 168 172 172 170 173 179 181 185 187 187 196 194 197 249 207 191 194 195 221 233 186 259 283 283 297 332 341 117 161 153 151 171 174 160 156 169 187 170 158 153 149 148 149 152 155 159 164 166 167 169 170
351 348 346 343 339 334 330 325 322 325 327 324 319 317 320 325 322 315 316 318 310 300 288 286 270 268 274 192 249 256 124 153 132 96 91 112 152 166 176 174 169 176 179 180 186 188 192 196 187 192 231 197 187 193 200 223 297 260 272 280 259 262 15 49 121 147 149 151 173 171 154 157 176 202 164 153 160 157 154 153 156 161 161 165 168 169 172 172
352 349 346 343 340 335 328 323 320 324 330 325 318 319 324 326 317 306 306 308 303 291 274 260 247 291 309 226 253 247 140 153 132 116 113 121 152 163 175 172 169 181 181 182 187 188 196 193 190 199 217 184 181 181 193 210 251 261 263 273 233 194 133 96 126 150 152 152 170 168 160 174 188 191 152 151 160 160 160 157 159 165 163 167 170 170 173 175
351 347 344 341 339 334 327 322 319 323 330 326 320 321 324 326 313 291 296 286 278 279 255 217 206 47 253 242 231 192 159 154 141 128 128 135 154 160 167 167 167 182 184 188 188 186 197 192 199 209 231 233 199 148 142 196 235 253 241 254 237 194 150 114 137 158 152 150 164 161 161 198 190 175 151 154 163 163 162 163 165 168 167 169 170 172 175 177
347 345 343 339 336 332 326 319 317 322 327 325 320 320 327 329 305 280 289 255 239 270 215 195 135 93 244 257 195 177 160 154 153 141 140 144 152 160 164 167 169 173 176 186 187 185 190 187 201 214 229 244 234 191 202 199 217 235 217 223 240 208 141 122 150 171 156 152 170 163 144 176 168 162 156 159 167 167 165 168 171 169 169 171 173 175 176 178
342 341 339 336 333 331 323 317 317 321 324 322 319 324 331 331 309 266 230 175 140 141 156 218 109 125 240 235 180 175 158 154 161 153 151 151 155 161 165 171 172 171 170 171 177 182 180 179 197 211 209 228 251 215 214 202 199 219 216 207 221 206 136 128 157 187 166 156 185 187 162 134 137 149 156 162 170 172 170 170 174 173 171 173 176 179 179 180
339 337 335 333 330 329 323 315 315 318 319 316 316 324 329 334 338 214 190 157 142 149 135 279 167 198 257 205 161 172 157 156 169 165 161 159 162 162 161 164 163 169 171 165 174 177 177 184 197 212 206 203 220 210 208 203 196 208 217 214 208 192 166 143 155 185 172 159 183 200 209 103 112 143 152 163 173 174 174 172 174 176 174 174 178 181 181 180
339 337 336 333 328 327 321 311 311 313 312 307 312 319 323 331 348 144 157 157 166 193 174 245 231 248 272 172 163 174 164 165 171 171 170 167 171 165 159 158 157 162 158 157 172 171 179 191 194 210 216 209 208 205 207 205 197 196 205 214 206 198 190 157 154 167 174 190 185 198 230 75 99 138 152 165 173 173 178 177 175 178 178 177 179 183 182 181
339 337 337 333 325 320 312 302 304 306 303 297 298 304 305 303 279 183 155 147 121 199 213 209 206 240 223 178 173 156 153 166 165 172 178 168 164 162 160 158 156 157 154 156 169 174 181 189 196 199 203 208 201 202 209 204 200 194 196 205 193 199 208 156 146 157 173 203 200 194 221 129 120 137 153 167 175 177 180 181 178 179 182 181 182 184 183 183
338 337 336 331 322 313 303 295 297 301 294 269 265 290 290 285 269 240 229 225 205 219 271 178 192 265 123 160 158 134 153 166 159 167 174 165 157 154 156 156 156 160 164 168 172 181 184 185 201 203 197 199 196 205 213 229 224 200 193 210 202 191 184 124 116 146 175 197 201 199 212 187 153 147 157 167 176 185 183 183 184 183 185 185 186 186 184 186
338 340 339 331 324 314 302 292 292 293 274 235 223 261 262 256 243 215 214 233 238 252 294 222 212 270 102 141 142 147 162 161 155 162 168 165 156 149 149 153 159 169 177 175 169 180 188 193 201 203 202 195 196 208 211 320 265 200 186 202 205 194 159 117 114 136 181 205 194 201 219 203 167 154 163 170 176 187 188 187 190 189 188 188 189 188 185 188
344 348 344 333 329 320 305 293 287 279 248 209 197 236 267 290 270 51 221 240 239 247 266 249 234 255 229 157 154 163 164 165 161 163 167 164 160 154 152 160 167 180 190 176 158 169 192 209 205 203 206 193 192 204 198 198 223 201 192 189 196 209 152 116 120 128 180 222 181 190 225 208 189 168 167 177 184 189 192 191 191 191 191 189 190 190 188 187
353 355 347 340 337 327 313 296 278 254 216 193 189 220 275 320 285 7 342 271 238 236 248 240 242 253 236 222 204 165 169 169 156 160 165 165 176 177 165 179 186 176 180 174 161 169 195 219 207 197 201 186 182 192 199 207 208 208 208 199 203 200 148 125 136 141 181 227 174 177 233 204 186 182 175 186 194 195 196 196 193 190 190 191 189 190 190 187
360 1 356 354 349 341 330 311 277 222 195 181 179 209 224 236 284 358 331 282 252 220 227 227 232 232 214 216 194 173 182 172 156 163 168 170 188 193 174 188 196 172 173 181 185 183 195 217 199 179 182 180 176 184 198 204 211 214 206 208 202 178 183 174 145 148 168 238 217 189 247 217 183 189 186 193 199 200 201 201 196 190 192 194 189 189 191 187
4 5 5 3 357 351 341 321 280 208 187 175 179 207 219 231 343 353 314 279 261 180 206 222 222 218 203 190 177 187 192 173 161 167 172 177 183 182 182 193 195 178 180 191 200 201 203 205 177 169 180 187 184 183 196 202 207 212 212 222 206 174 204 217 117 152 177 216 235 238 242 223 191 197 190 190 198 202 202 201 199 195 196 196 190 190 192 189
6 5 4 4 0 356 353 354 256 195 182 175 188 210 220 244 339 339 303 269 206 150 182 196 204 209 193 179 173 193 184 154 143 162 172 185 180 174 187 194 200 193 182 190 202 211 208 165 160 178 188 194 196 191 199 210 207 205 213 229 229 176 197 169 134 195 214 199 191 222 241 199 173 187 156 162 191 197 197 201 204 199 197 199 196 194 193 191
3 360 356 357 358 0 17 62 70 182 175 177 201 212 218 253 306 317 299 254 169 132 159 169 186 180 172 178 162 181 189 149 104 157 173 190 187 186 186 179 212 216 173 180 205 219 186 158 177 193 190 192 201 202 200 209 222 209 197 209 222 218 211 201 192 216 232 193 150 212 252 198 158 133 66 91 158 170 180 198 209 202 201 206 205 200 197 194
356 354 350 349 353 0 16 24 3 166 173 193 212 218 223 255 297 308 277 227 151 92 151 150 173 160 149 165 165 187 183 136 123 149 176 192 186 201 209 176 200 204 158 173 203 202 163 163 187 193 190 194 199 203 190 198 229 200 139 190 212 221 223 216 216 225 237 308 146 206 245 243 172 109 80 124 120 127 150 181 209 205 207 211 210 206 202 199
353 353 354 354 353 3 12 44 98 142 198 215 220 229 239 259 288 286 260 211 107 78 142 121 147 155 141 158 170 180 124 134 149 135 159 189 182 204 220 191 194 180 164 190 185 154 167 178 185 186 194 199 199 204 180 190 226 195 107 197 214 219 228 220 221 228 228 259 228 201 204 239 197 119 113 127 111 100 106 134 217 212 215 216 214 207 203 203
355 355 360 4 6 15 25 70 105 168 220 221 228 239 249 257 266 254 246 166 93 161 135 122 144 151 156 161 160 155 131 130 141 118 149 186 185 215 231 192 201 174 168 208 209 138 172 191 187 187 199 202 200 204 181 192 220 186 127 211 208 211 226 223 225 224 208 228 235 201 186 220 194 123 121 102 89 64 54 49 324 278 243 227 219 211 204 202
354 356 0 7 17 25 31 49 47 243 226 232 240 238 238 234 236 235 213 112 78 133 130 156 157 155 167 165 139 137 132 88 97 124 141 163 174 204 213 133 207 178 167 211 230 120 142 174 191 198 227 238 198 192 185 205 218 186 174 199 191 192 206 214 221 223 214 219 230 213 195 216 210 108 94 77 58 29 18 17 2 335 299 259 229 214 207 203
346 352 352 356 9 15 26 38 345 305 239 244 235 215 216 215 234 241 159 92 38 124 146 168 154 168 179 169 136 129 120 90 115 148 150 151 162 175 170 171 196 188 174 198 203 145 149 172 177 156 360 322 213 192 191 213 216 202 198 194 182 176 183 200 199 210 222 216 221 214 199 218 222 97 73 69 53 34 20 8 359 341 320 299 252 219 207 203
341 346 344 344 352 356 1 334 301 282 219 223 207 211 219 211 218 199 96 178 239 96 116 140 143 166 167 141 119 126 121 97 105 135 139 146 141 123 111 181 188 194 184 182 179 161 158 163 144 123 106 210 221 209 188 203 210 205 203 195 186 175 177 195 191 197 217 217 212 203 194 212 194 82 63 57 49 37 28 16 3 350 334 318 282 230 207 200
339 349 349 342 339 344 340 321 292 214 187 192 204 219 235 221 141 53 46 110 49 45 43 131 145 160 152 130 113 107 105 96 97 115 114 120 125 106 60 39 1 273 208 177 176 168 152 144 154 165 152 160 227 217 187 188 198 202 202 193 192 186 182 193 191 192 208 206 184 176 188 197 137 86 56 56 52 40 35 28 18 5 350 338 314 238 205 196
338 353 358 347 342 352 341 325 270 202 178 186 215 226 235 146 92 50 31 58 54 60 121 148 147 150 144 131 121 109 96 87 91 132 137 129 125 116 82 53 12 318 253 188 175 180 174 152 162 176 130 132 226 242 292 230 195 198 206 202 206 208 193 194 194 192 196 189 165 161 191 204 154 105 62 66 60 48 42 34 31 25 14 8 5 319 194 194
336 351 3 5 5 5 360 6 211 190 178 202 227 227 165 82 69 23 35 37 16 91 130 163 160 146 130 112 117 117 36 87 100 103 104 96 80 71 51 30 15 352 289 221 169 179 182 121 98 79 56 2 249 310 311 271 199 190 204 211 216 225 219 212 202 195 193 185 173 173 175 105 119 109 78 73 63 51 43 38 37 33 28 29 27 25 43 191
335 351 9 11 7 8 10 25 143 162 186 227 233 75 61 55 25 353 10 349 323 35 149 173 167 152 143 133 132 127 78 111 135 111 84 85 72 49 28 24 12 359 333 275 179 181 178 111 100 112 104 52 6 5 275 271 227 184 198 210 205 276 262 239 191 187 201 198 179 172 139 105 128 117 74 65 59 50 41 37 37 35 34 35 31 20 10 357
330 355 17 13 13 20 17 16 139 160 224 257 75 73 45 46 15 344 344 323 312 301 229 173 155 188 150 143 133 132 134 133 147 146 110 108 72 25 11 31 14 3 359 327 277 196 210 120 119 135 122 98 52 38 157 272 283 222 198 194 152 22 273 260 205 184 200 199 173 175 163 148 171 155 75 52 46 44 38 33 34 35 35 34 31 24 12 359
335 10 28 23 25 24 15 44 116 203 253 233 93 83 31 43 22 358 343 317 300 276 255 157 109 287 157 145 128 128 161 170 153 137 113 111 75 12 358 21 14 9 3 320 287 356 305 128 125 132 127 126 154 220 176 171 263 295 283 189 177 216 215 219 225 195 196 198 174 171 163 141 173 162 91 43 33 36 33 31 32 33 32 29 29 26 21 14
329 260 47 26 16 9 2 1 279 286 259 109 100 95 53 50 31 18 7 328 304 292 290 96 101 280 118 137 129 113 149 155 140 141 104 57 80 29 7 4 351 0 356 322 310 354 280 216 134 134 148 158 174 235 193 160 179 236 255 215 213 240 216 208 223 209 203 204 177 165 165 136 73 82 74 43 33 31 29 32 33 33 32 29 28 27 25 23
307 275 66 18 6 13 11 9 342 328 88 76 70 75 57 46 38 30 24 15 359 342 360 71 117 133 104 100 117 100 69 99 109 107 81 61 91 71 29 5 339 341 338 312 323 357 253 238 149 133 158 187 172 44 24 29 88 211 216 201 193 222 247 228 224 224 239 222 187 180 183 151 101 67 62 59 50 39 36 40 39 37 36 34 32 30 29 27
289 275 59 12 10 28 19 49 59 58 89 81 66 65 47 16 24 33 33 39 46 37 42 58 66 102 112 100 104 100 92 102 97 89 93 67 55 72 32 1 335 326 321 292 9 17 283 237 189 150 159 162 100 59 32 12 357 339 278 236 207 223 228 216 209 210 251 264 222 194 180 138 108 84 72 71 62 55 51 49 50 44 39 39 37 34 35 33
319 333 21 348 357 21 3 77 75 58 76 83 61 52 45 5 8 26 31 36 52 52 51 59 57 62 79 81 95 108 101 91 82 85 94 71 46 40 15 352 330 317 322 314 77 13 326 261 165 124 107 101 105 84 25 7 341 346 25 14 323 270 249 232 220 203 209 246 267 201 154 125 110 93 89 84 73 68 61 55 57 53 44 42 39 37 38 38
21 28 360 344 0 26 353 92 90 71 74 88 77 59 55 39 32 36 33 30 38 48 54 59 52 50 59 67 94 108 90 68 74 85 97 92 64 36 9 355 341 321 322 342 92 1 318 257 125 110 100 106 132 143 39 327 263 238 55 26 344 321 307 291 308 287 216 205 224 211 157 127 132 119 105 98 82 74 68 59 57 55 48 44 41 39 38 37
43 41 14 9 30 222 253 85 97 94 90 103 102 84 70 50 38 38 43 41 38 48 64 58 48 56 68 71 87 90 58 57 94 87 88 99 73 37 19 7 2 4 10 15 1 346 334 280 167 159 157 158 173 183 180 189 210 125 67 34 14 11 333 287 303 282 236 204 269 238 174 125 141 142 120 108 89 72 66 61 56 55 49 44 43 42 40 38
353 61 42 35 45 65 64 58 80 104 105 105 95 88 90 69 46 44 53 53 46 50 69 65 52 70 85 85 88 78 42 60 108 116 100 102 95 58 33 20 19 29 35 18 339 322 334 22 335 237 197 186 187 180 166 156 144 109 64 44 28 16 348 300 247 227 218 146 338 269 139 124 140 141 125 116 101 77 66 62 57 54 51 46 44 44 43 41
298 41 62 55 62 74 75 56 52 91 106 106 90 70 87 98 73 49 47 53 54 55 66 68 55 76 92 91 93 82 64 68 97 130 124 108 102 67 33 32 40 37 29 11 345 322 331 56 11 351 4 38 80 74 39 33 137 122 75 54 34 18 356 308 246 230 213 147 89 72 118 138 146 142 127 116 106 87 68 60 55 52 50 49 47 46 47 45
349 7 20 60 78 81 84 63 43 58 60 60 74 42 68 105 101 65 48 51 56 54 60 59 44 65 93 93 93 82 76 82 91 104 108 96 100 93 48 38 46 36 16 6 356 322 209 109 42 36 48 54 67 74 56 37 81 91 76 61 39 26 10 348 20 34 340 202 140 109 131 145 145 142 130 108 97 89 70 58 52 48 48 50 49 48 47 44
54 73 39 40 44 50 67 52 38 69 89 81 92 86 78 88 86 71 67 69 62 36 46 69 60 64 75 71 91 99 97 100 95 91 96 89 100 124 84 52 43 30 17 35 24 334 270 108 90 90 88 78 68 71 66 57 77 83 58 56 47 38 37 45 68 53 5 11 133 133 144 144 142 143 127 97 84 81 70 60 52 47 47 49 48 47 44 41
73 94 72 56 60 61 65 58 56 85 90 85 84 77 78 87 85 72 56 66 68 46 47 92 84 75 79 73 100 112 96 93 106 102 90 86 77 49 99 82 53 34 23 49 51 354 310 92 119 137 119 99 78 78 72 40 79 156 115 94 76 56 72 78 85 80 64 84 116 131 136 134 136 134 113 95 84 78 71 64 55 46 43 45 46 46 42 39
72 88 88 90 92 85 79 83 101 100 95 98 101 83 72 81 90 84 46 34 71 73 71 91 91 84 89 91 96 95 65 48 97 112 112 111 103 58 47 48 44 40 31 49 58 345 309 126 147 182 156 127 107 110 113 27 283 205 172 148 161 156 145 146 137 123 113 113 123 133 134 130 131 127 118 112 104 91 73 57 53 45 38 39 41 42 40 36
89 105 113 97 85 75 77 87 111 125 104 97 104 106 97 86 87 90 66 45 62 83 86 93 95 89 88 86 82 78 66 56 76 93 93 66 62 64 55 32 358 6 48 63 47 327 298 146 162 218 212 150 138 166 173 152 235 225 202 179 177 176 163 150 139 134 139 136 142 156 159 141 137 140 136 132 124 108 69 38 43 44 38 36 37 36 36 34
88 106 101 358 80 88 124 117 149 177 85 75 86 105 106 102 100 97 81 69 70 77 80 91 101 100 92 85 76 64 59 60 68 80 84 74 76 80 75 69 43 17 41 67 43 20 241 164 167 221 237 148 139 182 234 217 226 218 174 159 172 168 148 142 136 120 105 148 161 177 153 126 136 155 159 155 141 111 67 37 32 34 34 34 34 32 30 31
Height
1522 1521 1521 1520 1519 1518 1518 1517 1516 1515 1515 1514 1513 1512 1512 1511 1511 1510 1509 1508 1508 1508 1508 1507 1506 1506 1506 1506 1506 1506 1506 1506 1506 1505 1504 1504 1505 1506 1507 1509 1511 1512 1514 1517 1519 1520 1522 1524 1525 1527 1528 1529 1528 1528 1528 1528 1526 1526 1523 1519 1521 1522 1521 1518 1515 1517 1518 1516 1519 1524 1527 1528 1529 1531 1531 1532 1533 1534 1536 1538 1539 1540 1541 1542 1544 1547 1551 1554
1522 1521 1520 1519 1518 1517 1517 1516 1515 1515 1514 1513 1512 1512 1511 1510 1510 1509 1509 1508 1507 1507 1507 1506 1506 1505 1505 1506 1506 1506 1505 1505 1504 1503 1503 1503 1503 1504 1506 1508 1509 1511 1513 1516 1517 1519 1521 1523 1524 1526 1527 1527 1527 1528 1528 1527 1526 1525 1522 1520 1522 1521 1519 1518 1515 1515 1514 1516 1519 1523 1528 1528 1529 1531 1531 1532 1533 1534 1535 1537 1539 1541 1542 1544 1546 1549 1552 1555
1522 1521 1520 1519 1518 1517 1516 1515 1514 1514 1513 1513 1512 1511 1510 1509 1509 1508 1508 1507 1506 1506 1506 1505 1505 1505 1505 1505 1505 1505 1504 1504 1503 1502 1501 1501 1502 1502 1504 1506 1508 1511 1513 1516 1518 1520 1522 1522 1524 1525 1526 1525 1526 1528 1527 1526 1524 1523 1522 1522 1522 1519 1517 1517 1518 1517 1516 1517 1519 1524 1528 1528 1529 1531 1531 1532 1532 1532 1533 1536 1538 1541 1543 1545 1547 1550 1552 1555
1522 1521 1520 1519 1518 1517 1516 1514 1514 1513 1512 1512 1511 1510 1510 1509 1508 1507 1507 1506 1505 1505 1505 1504 1504 1504 1504 1504 1504 1504 1504 1503 1502 1501 1500 1500 1500 1501 1503 1506 1508 1511 1514 1517 1519 1521 1523 1523 1524 1525 1525 1523 1524 1526 1525 1525 1523 1521 1521 1521 1520 1518 1517 1518 1519 1519 1519 1520 1521 1525 1527 1528 1530 1531 1530 1529 1531 1533 1531 1533 1536 1539 1543 1544 1547 1550 1553 1556
1523 1521 1520 1519 1518 1516 1515 1514 1513 1512 1512 1511 1510 1510 1509 1508 1507 1506 1506 1505 1504 1504 1504 1503 1503 1503 1503 1503 1503 1503 1504 1502 1500 1500 1499 1499 1499 1500 1503 1505 1508 1511 1514 1517 1519 1521 1522 1523 1524 1524 1524 1521 1522 1524 1523 1523 1522 1521 1519 1517 1518 1518 1518 1518 1518 1520 1521 1521 1523 1525 1527 1528 1529 1531 1530 1527 1531 1535 1531 1532 1536 1539 1542 1544 1547 1550 1553 1556
1523 1521 1520 1519 1517 1516 1515 1514 1513 1512 1511 1510 1510 1509 1508 1507 1506 1505 1505 1504 1504 1503 1503 1503 1502 1503 1503 1503 1503 1503 1503 1500 1498 1499 1499 1499 1499 1500 1503 1505 1508 1510 1513 1516 1518 1521 1521 1523 1523 1523 1522 1519 1520 1521 1520 1521 1522 1521 1517 1515 1517 1517 1518 1519 1518 1520 1521 1522 1523 1525 1526 1528 1529 1530 1530 1528 1531 1534 1531 1533 1537 1539 1543 1545 1547 1550 1553 1555
1522 1521 1520 1518 1517 1516 1515 1513 1512 1511 1510 1509 1509 1508 1507 1506 1505 1504 1504 1503 1503 1502 1502 1502 1502 1502 1502 1502 1502 1502 1502 1500 1499 1499 1498 1498 1499 1500 1503 1505 1508 1510 1513 1516 1518 1519 1520 1522 1521 1520 1520 1519 1519 1519 1519 1521 1521 1521 1518 1515 1517 1517 1518 1518 1518 1519 1520 1522 1523 1524 1525 1527 1529 1529 1530 1530 1532 1534 1534 1536 1538 1541 1544 1546 1548 1550 1553 1555
1521 1520 1519 1518 1517 1515 1514 1513 1511 1510 1509 1509 1508 1507 1506 1505 1504 1504 1503 1502 1502 1501 1501 1501 1501 1501 1501 1502 1502 1502 1501 1500 1499 1499 1498 1498 1499 1501 1503 1505 1508 1510 1513 1515 1517 1518 1519 1520 1520 1520 1519 1517 1518 1518 1519 1520 1520 1520 1518 1515 1516 1516 1517 1517 1517 1518 1519 1521 1523 1524 1525 1526 1527 1528 1530 1531 1533 1535 1536 1537 1539 1542 1544 1547 1549 1551 1553 1556
1520 1519 1518 1517 1516 1515 1514 1512 1510 1509 1508 1508 1507 1506 1505 1504 1503 1503 1502 1501 1501 1501 1500 1500 1500 1501 1501 1501 1502 1500 1498 1499 1499 1499 1498 1498 1500 1502 1504 1506 1507 1511 1513 1515 1517 1518 1519 1519 1519 1519 1518 1517 1518 1517 1518 1520 1519 1518 1517 1516 1516 1515 1516 1516 1516 1517 1519 1521 1522 1523 1523 1524 1527 1528 1529 1530 1533 1535 1536 1538 1540 1542 1545 1547 1549 1551 1553 1555
1520 1519 1517 1516 1515 1514 1513 1511 1510 1508 1507 1507 1506 1505 1504 1503 1502 1502 1501 1501 1500 1500 1500 1500 1500 1500 1500 1501 1501 1498 1497 1499 1500 1499 1499 1499 1501 1503 1505 1506 1508 1511 1514 1515 1517 1518 1519 1519 1519 1520 1519 1517 1517 1518 1517 1519 1518 1517 1517 1516 1516 1515 1515 1515 1516 1517 1518 1520 1521 1522 1522 1524 1526 1527 1530 1531 1532 1535 1536 1539 1541 1542 1544 1547 1549 1552 1554 1556
1519 1518 1517 1515 1514 1513 1512 1510 1509 1508 1507 1505 1505 1504 1503 1502 1501 1501 1500 1500 1500 1499 1499 1500 1500 1500 1500 1501 1500 1497 1497 1500 1499 1500 1500 1500 1502 1504 1506 1507 1509 1512 1514 1515 1516 1518 1519 1519 1520 1521 1520 1517 1517 1518 1517 1517 1517 1517 1517 1516 1514 1513 1514 1515 1515 1517 1517 1520 1521 1520 1522 1524 1526 1527 1528 1530 1532 1534 1536 1538 1541 1543 1544 1547 1549 1552 1554 1556
1519 1517 1516 1515 1513 1512 1511 1509 1508 1507 1506 1505 1504 1503 1502 1501 1500 1500 1499 1499 1499 1499 1499 1499 1499 1500 1500 1501 1500 1498 1499 1499 1500 1501 1501 1502 1504 1505 1507 1509 1511 1513 1514 1516 1517 1518 1519 1520 1521 1520 1519 1517 1517 1517 1517 1517 1517 1517 1516 1516 1513 1511 1514 1515 1515 1517 1516 1519 1521 1521 1527 1529 1526 1525 1525 1528 1531 1534 1536 1538 1541 1543 1544 1547 1549 1551 1554 1556
1518 1516 1515 1513 1512 1511 1510 1508 1507 1506 1505 1504 1503 1502 1502 1500 1500 1499 1499 1499 1499 1498 1498 1499 1499 1500 1500 1500 1499 1499 1499 1499 1500 1501 1501 1503 1505 1506 1508 1510 1512 1514 1516 1517 1517 1518 1519 1520 1520 1520 1519 1517 1515 1516 1517 1516 1517 1517 1513 1515 1513 1512 1517 1515 1514 1517 1516 1519 1519 1523 1539 1538 1526 1522 1523 1527 1531 1533 1536 1538 1540 1542 1544 1546 1548 1551 1553 1555
1517 1515 1514 1512 1511 1510 1508 1507 1506 1505 1504 1503 1502 1502 1501 1499 1499 1498 1498 1498 1498 1498 1498 1499 1499 1499 1500 1499 1498 1498 1499 1499 1501 1501 1502 1504 1505 1507 1508 1510 1512 1514 1515 1517 1518 1518 1519 1520 1521 1520 1520 1518 1515 1516 1516 1514 1516 1515 1512 1514 1512 1513 1519 1514 1513 1516 1516 1521 1518 1525 1544 1538 1524 1521 1523 1527 1530 1532 1535 1537 1539 1541 1544 1546 1548 1550 1552 1554
1516 1514 1513 1511 1510 1509 1507 1505 1504 1504 1503 1502 1501 1501 1500 1499 1498 1498 1498 1498 1498 1498 1498 1499 1499 1499 1500 1498 1497 1498 1499 1500 1501 1502 1503 1504 1506 1507 1508 1510 1512 1513 1515 1517 1518 1518 1519 1520 1521 1520 1519 1518 1517 1517 1516 1514 1513 1512 1517 1520 1511 1512 1519 1515 1513 1514 1516 1519 1517 1526 1539 1531 1521 1521 1522 1527 1529 1531 1534 1536 1539 1540 1542 1545 1547 1549 1551 1553
1515 1513 1512 1510 1509 1507 1506 1504 1503 1502 1502 1501 1501 1500 1500 1499 1498 1498 1498 1498 1498 1497 1498 1499 1499 1499 1498 1496 1497 1498 1499 1501 1501 1502 1504 1505 1507 1507 1508 1510 1512 1514 1515 1516 1517 1518 1520 1520 1520 1519 1517 1517 1517 1516 1515 1516 1515 1511 1517 1521 1511 1510 1518 1517 1515 1512 1513 1517 1516 1525 1531 1524 1521 1521 1522 1527 1528 1530 1533 1535 1538 1539 1541 1543 1546 1547 1549 1552
1513 1511 1510 1508 1507 1505 1504 1502 1501 1501 1501 1501 1501 1500 1499 1499 1498 1498 1498 1498 1498 1497 1498 1499 1499 1500 1498 1496 1497 1498 1499 1500 1501 1502 1503 1505 1508 1508 1509 1510 1512 1514 1515 1517 1518 1519 1520 1520 1520 1518 1516 1515 1512 1512 1518 1521 1518 1512 1513 1515 1510 1509 1513 1517 1518 1512 1512 1516 1517 1521 1522 1519 1520 1520 1523 1526 1527 1530 1532 1534 1536 1538 1540 1541 1544 1546 1548 1551
1511 1509 1507 1506 1504 1503 1503 1501 1500 1500 1500 1500 1500 1500 1499 1499 1499 1499 1498 1498 1498 1498 1498 1498 1499 1499 1497 1495 1496 1497 1498 1499 1500 1502 1503 1505 1507 1508 1509 1510 1512 1514 1515 1517 1518 1518 1520 1518 1517 1516 1516 1514 1511 1513 1518 1516 1510 1510 1513 1513 1511 1511 1511 1515 1518 1513 1513 1517 1517 1519 1520 1518 1518 1519 1522 1526 1527 1529 1531 1533 1535 1537 1539 1541 1542 1544 1546 1549
1509 1508 1506 1504 1503 1502 1501 1500 1499 1499 1499 1499 1499 1500 1499 1499 1499 1499 1498 1498 1497 1496 1495 1496 1497 1495 1493 1493 1495 1496 1497 1498 1499 1501 1503 1504 1506 1508 1509 1510 1512 1513 1514 1514 1516 1517 1517 1517 1517 1516 1514 1514 1512 1511 1509 1506 1501 1503 1507 1509 1509 1510 1510 1512 1514 1511 1511 1517 1518 1518 1519 1516 1516 1519 1522 1524 1526 1528 1530 1532 1534 1536 1538 1539 1541 1543 1545 1548
1508 1506 1505 1502 1501 1500 1499 1498 1498 1498 1498 1499 1499 1499 1499 1498 1497 1496 1497 1497 1496 1494 1493 1494 1495 1493 1493 1494 1496 1496 1497 1498 1499 1501 1502 1504 1506 1508 1509 1510 1511 1512 1511 1510 1513 1515 1515 1516 1515 1513 1510 1509 1510 1506 1504 1505 1503 1501 1505 1508 1508 1508 1510 1511 1513 1510 1508 1515 1518 1514 1515 1514 1514 1516 1518 1522 1525 1526 1528 1530 1532 1534 1536 1538 1539 1541 1544 1546
1507 1505 1503 1501 1500 1498 1497 1497 1497 1497 1498 1498 1499 1499 1498 1497 1494 1494 1495 1494 1493 1493 1493 1494 1494 1493 1493 1494 1495 1496 1496 1498 1499 1501 1502 1504 1505 1506 1508 1509 1509 1509 1508 1507 1510 1513 1514 1514 1510 1508 1505 1505 1507 1506 1507 1510 1509 1507 1507 1509 1510 1509 1509 1511 1512 1510 1508 1514 1517 1513 1514 1515 1512 1512 1515 1519 1522 1522 1524 1526 1529 1531 1533 1536 1539 1540 1543 1545
1506 1504 1502 1500 1499 1498 1497 1496 1496 1496 1497 1497 1498 1499 1498 1497 1496 1496 1495 1492 1491 1492 1492 1493 1493 1493 1493 1494 1494 1495 1496 1496 1498 1501 1501 1503 1505 1503 1505 1506 1505 1505 1505 1506 1510 1514 1515 1511 1505 1503 1502 1503 1507 1508 1510 1512 1511 1511 1508 1509 1511 1507 1509 1512 1512 1510 1509 1513 1516 1514 1516 1514 1509 1509 1511 1514 1517 1518 1520 1522 1526 1529 1531 1534 1537 1539 1541 1543
1506 1504 1502 1501 1499 1497 1496 1495 1495 1496 1496 1497 1498 1498 1498 1497 1497 1496 1496 1493 1490 1490 1491 1492 1492 1492 1493 1494 1494 1494 1494 1493 1496 1499 1500 1502 1503 1502 1503 1503 1502 1502 1504 1506 1508 1512 1514 1507 1500 1501 1503 1506 1510 1511 1512 1513 1512 1510 1508 1510 1510 1506 1510 1515 1513 1511 1510 1511 1513 1515 1516 1512 1508 1508 1508 1510 1513 1515 1518 1520 1523 1526 1529 1531 1534 1538 1540 1541
1506 1504 1502 1500 1498 1497 1495 1494 1495 1495 1495 1496 1497 1498 1497 1497 1497 1496 1496 1492 1488 1489 1490 1491 1491 1492 1492 1492 1493 1494 1493 1492 1493 1497 1499 1500 1501 1502 1501 1500 1500 1501 1503 1504 1504 1506 1506 1501 1498 1502 1506 1508 1511 1512 1512 1514 1514 1510 1508 1508 1507 1506 1510 1512 1512 1512 1511 1511 1511 1514 1519 1513 1508 1510 1509 1507 1510 1513 1515 1518 1521 1524 1528 1530 1532 1535 1538 1540
1505 1503 1502 1500 1498 1496 1494 1494 1494 1494 1496 1496 1497 1497 1496 1497 1496 1496 1496 1491 1487 1487 1488 1489 1490 1490 1491 1491 1492 1493 1492 1492 1493 1495 1498 1499 1499 1500 1499 1498 1499 1500 1502 1502 1503 1504 1501 1499 1501 1506 1507 1507 1510 1512 1512 1512 1512 1511 1510 1506 1505 1507 1510 1511 1513 1514 1515 1517 1511 1513 1525 1520 1507 1509 1510 1508 1510 1513 1515 1517 1520 1524 1527 1530 1531 1533 1536 1538
1504 1503 1502 1500 1499 1496 1495 1495 1494 1495 1496 1497 1497 1496 1496 1497 1496 1497 1496 1487 1483 1485 1486 1488 1488 1489 1490 1491 1492 1493 1492 1493 1494 1496 1497 1498 1498 1499 1499 1499 1498 1497 1498 1501 1503 1501 1499 1501 1504 1506 1507 1508 1511 1511 1509 1509 1511 1511 1507 1504 1507 1510 1512 1513 1514 1516 1517 1517 1510 1510 1523 1520 1510 1514 1515 1511 1514 1515 1516 1518 1519 1522 1526 1528 1530 1532 1535 1536
1504 1503 1501 1500 1498 1497 1496 1495 1495 1496 1496 1497 1496 1495 1497 1497 1496 1497 1495 1489 1486 1485 1485 1486 1487 1487 1489 1490 1491 1492 1491 1491 1495 1497 1497 1498 1498 1499 1498 1497 1498 1497 1496 1501 1506 1501 1498 1503 1505 1504 1507 1508 1511 1511 1507 1508 1512 1509 1503 1504 1509 1511 1513 1513 1514 1516 1512 1511 1512 1510 1515 1518 1517 1522 1519 1514 1518 1519 1518 1520 1518 1520 1524 1526 1528 1530 1533 1536
1504 1503 1501 1499 1498 1497 1496 1495 1496 1496 1496 1496 1495 1496 1497 1496 1497 1496 1494 1495 1492 1485 1484 1486 1487 1488 1489 1490 1490 1491 1489 1489 1492 1496 1497 1497 1498 1498 1497 1495 1496 1497 1496 1501 1505 1500 1498 1504 1504 1504 1508 1508 1508 1506 1503 1508 1511 1506 1503 1506 1508 1509 1512 1510 1512 1515 1510 1517 1522 1511 1512 1521 1521 1521 1518 1514 1520 1523 1522 1521 1519 1519 1521 1523 1525 1528 1531 1533
1504 1502 1501 1500 1498 1497 1496 1496 1496 1496 1496 1495 1495 1497 1495 1496 1498 1493 1492 1497 1491 1483 1486 1487 1487 1489 1489 1489 1490 1490 1490 1489 1490 1494 1497 1497 1498 1497 1496 1494 1492 1494 1498 1498 1497 1497 1498 1501 1501 1502 1506 1505 1503 1501 1501 1508 1509 1503 1505 1507 1507 1509 1510 1510 1513 1513 1514 1526 1527 1511 1511 1521 1521 1520 1518 1519 1524 1526 1524 1520 1518 1518 1519 1521 1523 1525 1528 1530
1504 1502 1501 1500 1498 1497 1497 1496 1496 1496 1495 1495 1495 1496 1495 1497 1496 1493 1496 1496 1487 1484 1488 1486 1486 1488 1487 1488 1489 1489 1490 1491 1491 1494 1496 1497 1497 1498 1496 1496 1494 1494 1498 1497 1495 1496 1497 1499 1500 1501 1503 1500 1499 1500 1501 1505 1505 1503 1507 1509 1510 1511 1510 1512 1512 1511 1522 1533 1524 1508 1507 1514 1522 1526 1522 1524 1527 1525 1523 1521 1519 1519 1519 1519 1520 1523 1526 1528
1504 1503 1502 1500 1499 1498 1497 1496 1496 1495 1495 1495 1495 1495 1496 1494 1490 1493 1498 1492 1484 1485 1487 1485 1485 1486 1485 1485 1488 1490 1490 1492 1492 1492 1495 1495 1495 1496 1496 1497 1496 1496 1499 1499 1497 1498 1499 1502 1501 1501 1503 1502 1502 1504 1504 1504 1503 1505 1508 1509 1514 1517 1516 1518 1517 1519 1533 1535 1516 1504 1505 1509 1522 1529 1524 1523 1524 1521 1522 1522 1521 1520 1519 1519 1518 1519 1523 1525
1504 1503 1501 1500 1499 1498 1497 1496 1495 1494 1494 1494 1494 1494 1494 1492 1490 1492 1492 1487 1488 1489 1485 1485 1485 1484 1484 1484 1487 1490 1490 1493 1493 1491 1492 1493 1495 1497 1497 1496 1495 1500 1504 1500 1498 1499 1499 1500 1500 1504 1505 1504 1506 1507 1506 1506 1505 1507 1508 1508 1518 1526 1529 1532 1529 1529 1533 1525 1507 1501 1506 1512 1521 1526 1524 1523 1522 1520 1521 1521 1521 1520 1519 1519 1517 1517 1520 1522
1505 1503 1501 1500 1499 1497 1496 1495 1494 1494 1493 1493 1494 1492 1490 1494 1498 1494 1487 1486 1490 1489 1485 1486 1484 1483 1484 1487 1490 1491 1491 1495 1495 1493 1494 1493 1496 1499 1499 1497 1496 1500 1499 1494 1496 1500 1502 1503 1501 1504 1505 1504 1505 1504 1506 1508 1506 1507 1506 1508 1517 1524 1535 1541 1533 1530 1529 1517 1504 1502 1510 1518 1522 1525 1523 1521 1521 1520 1520 1521 1521 1521 1519 1518 1516 1515 1517 1520
1505 1503 1502 1500 1497 1496 1495 1494 1493 1493 1492 1493 1493 1490 1491 1498 1499 1493 1487 1488 1489 1487 1487 1487 1484 1484 1485 1488 1492 1491 1492 1498 1496 1494 1495 1494 1497 1500 1500 1500 1499 1498 1492 1489 1493 1496 1504 1510 1505 1502 1504 1504 1503 1502 1502 1502 1502 1503 1499 1501 1507 1509 1519 1529 1524 1523 1522 1513 1508 1511 1515 1516 1520 1525 1521 1518 1520 1520 1521 1521 1521 1521 1519 1517 1515 1513 1515 1518
1505 1503 1502 1499 1497 1496 1494 1493 1493 1491 1492 1493 1489 1487 1494 1499 1496 1492 1492 1492 1489 1487 1487 1486 1484 1486 1489 1490 1492 1491 1492 1498 1497 1494 1496 1498 1501 1505 1505 1504 1503 1500 1496 1493 1492 1491 1498 1506 1504 1502 1504 1502 1503 1503 1500 1499 1501 1499 1494 1499 1504 1497 1498 1506 1505 1504 1505 1508 1512 1514 1514 1511 1514 1520 1517 1516 1520 1519 1521 1522 1520 1521 1520 1518 1518 1515 1516 1518
1505 1503 1502 1500 1498 1496 1494 1494 1493 1491 1492 1490 1487 1492 1498 1499 1497 1495 1495 1494 1492 1490 1488 1486 1484 1486 1491 1493 1493 1493 1492 1495 1496 1497 1501 1503 1506 1509 1509 1508 1507 1504 1502 1497 1493 1493 1500 1506 1504 1503 1504 1503 1504 1503 1500 1502 1502 1497 1497 1501 1498 1490 1492 1501 1504 1499 1499 1510 1512 1506 1514 1520 1518 1521 1518 1516 1521 1520 1521 1522 1520 1522 1521 1519 1519 1518 1518 1518
1505 1503 1503 1501 1499 1497 1496 1495 1493 1493 1492 1487 1491 1499 1499 1498 1500 1498 1497 1495 1494 1493 1488 1488 1490 1488 1490 1492 1493 1494 1493 1495 1495 1497 1503 1505 1508 1513 1512 1510 1509 1507 1506 1503 1497 1494 1499 1506 1505 1503 1505 1505 1504 1504 1501 1501 1499 1498 1501 1498 1492 1496 1498 1500 1508 1509 1508 1515 1511 1502 1514 1523 1522 1526 1525 1520 1522 1523 1522 1523 1522 1522 1522 1521 1521 1521 1520 1519
1504 1503 1503 1502 1500 1499 1497 1496 1495 1494 1491 1489 1496 1502 1498 1498 1501 1499 1498 1497 1495 1493 1487 1487 1492 1490 1487 1490 1495 1494 1492 1495 1496 1497 1503 1506 1511 1516 1514 1512 1511 1507 1507 1506 1502 1496 1496 1505 1508 1503 1504 1505 1503 1503 1503 1500 1498 1499 1499 1492 1494 1507 1508 1503 1509 1513 1514 1517 1514 1507 1511 1519 1521 1523 1526 1526 1526 1526 1525 1524 1524 1523 1523 1523 1522 1523 1522 1521
1504 1502 1502 1502 1501 1500 1498 1497 1496 1492 1489 1491 1497 1501 1499 1499 1501 1499 1499 1498 1495 1493 1488 1487 1490 1490 1488 1490 1494 1495 1493 1495 1497 1498 1504 1508 1512 1516 1515 1514 1513 1510 1509 1506 1502 1499 1496 1503 1509 1504 1502 1503 1502 1502 1504 1503 1499 1498 1498 1495 1495 1500 1502 1502 1500 1500 1506 1509 1514 1519 1519 1523 1526 1522 1524 1530 1528 1527 1528 1526 1526 1525 1525 1525 1524 1524 1523 1523
1504 1501 1501 1502 1501 1500 1498 1497 1495 1492 1492 1495 1498 1500 1500 1500 1501 1500 1500 1498 1496 1494 1491 1490 1489 1490 1493 1494 1494 1497 1496 1497 1499 1501 1506 1510 1513 1516 1516 1517 1514 1511 1511 1506 1503 1502 1497 1498 1506 1506 1502 1503 1507 1509 1510 1509 1503 1500 1499 1498 1499 1497 1496 1500 1495 1490 1495 1498 1506 1521 1524 1526 1530 1526 1526 1530 1529 1529 1530 1528 1528 1528 1528 1528 1527 1526 1525 1524
1503 1500 1500 1503 1501 1500 1499 1497 1496 1495 1495 1499 1500 1501 1503 1502 1501 1501 1500 1499 1498 1496 1494 1493 1491 1491 1495 1496 1496 1498 1499 1500 1502 1503 1508 1512 1514 1516 1517 1518 1517 1513 1510 1506 1504 1505 1501 1496 1499 1504 1504 1507 1515 1516 1515 1514 1510 1505 1501 1499 1501 1500 1498 1506 1506 1495 1494 1494 1494 1505 1520 1530 1532 1528 1527 1529 1530 1530 1530 1529 1530 1530 1530 1530 1529 1528 1527 1526
1502 1500 1501 1503 1501 1500 1498 1497 1499 1498 1498 1502 1504 1504 1505 1505 1503 1501 1501 1499 1498 1498 1497 1496 1497 1497 1497 1498 1499 1499 1500 1504 1505 1506 1510 1514 1515 1517 1519 1518 1518 1514 1511 1508 1507 1508 1506 1499 1500 1506 1509 1511 1517 1518 1515 1516 1513 1508 1506 1505 1504 1501 1500 1506 1510 1500 1496 1498 1492 1494 1518 1535 1533 1528 1528 1529 1530 1531 1532 1532 1531 1531 1532 1531 1531 1530 1529 1528
1503 1503 1503 1502 1501 1500 1498 1499 1501 1502 1503 1506 1507 1507 1507 1506 1504 1502 1501 1500 1499 1499 1499 1499 1500 1501 1502 1502 1502 1501 1504 1509 1511 1510 1513 1516 1518 1520 1521 1519 1517 1514 1511 1509 1509 1509 1508 1504 1507 1515 1516 1514 1515 1515 1515 1515 1512 1509 1510 1509 1507 1506 1505 1505 1506 1501 1496 1499 1497 1500 1525 1541 1535 1530 1530 1529 1531 1533 1533 1534 1533 1533 1534 1532 1533 1532 1530 1530
1506 1506 1505 1503 1502 1500 1498 1500 1503 1504 1506 1507 1507 1507 1508 1508 1507 1505 1503 1503 1503 1502 1502 1503 1503 1503 1505 1505 1504 1504 1506 1511 1515 1514 1513 1516 1519 1522 1522 1519 1517 1514 1513 1513 1512 1512 1511 1508 1510 1516 1520 1521 1520 1518 1517 1514 1512 1512 1513 1513 1511 1510 1510 1508 1506 1503 1501 1504 1502 1502 1522 1538 1534 1530 1530 1529 1532 1534 1533 1535 1535 1534 1535 1534 1534 1533 1532 1531
1506 1506 1505 1504 1503 1501 1501 1502 1502 1504 1506 1507 1507 1508 1508 1509 1510 1509 1507 1506 1506 1505 1504 1507 1506 1505 1506 1505 1505 1507 1506 1508 1514 1516 1515 1517 1520 1522 1522 1521 1519 1516 1517 1519 1516 1514 1513 1513 1513 1515 1516 1520 1523 1522 1519 1514 1512 1514 1515 1516 1515 1512 1512 1510 1507 1506 1508 1511 1509 1508 1521 1534 1532 1530 1531 1530 1532 1535 1535 1536 1536 1536 1537 1536 1535 1535 1534 1533
1505 1504 1505 1505 1505 1504 1505 1506 1504 1504 1505 1506 1508 1509 1508 1510 1512 1511 1510 1509 1509 1508 1508 1509 1508 1507 1507 1506 1507 1510 1508 1508 1512 1515 1516 1517 1519 1522 1522 1521 1521 1520 1520 1520 1518 1515 1515 1515 1518 1518 1515 1518 1523 1523 1520 1514 1514 1518 1519 1519 1518 1515 1513 1510 1507 1508 1508 1510 1518 1522 1525 1531 1532 1531 1533 1532 1533 1536 1537 1537 1538 1538 1538 1538 1537 1537 1536 1535
1507 1507 1507 1507 1507 1506 1507 1508 1507 1507 1507 1507 1511 1512 1510 1510 1511 1511 1511 1511 1512 1511 1510 1511 1510 1509 1509 1510 1510 1513 1514 1512 1514 1517 1518 1519 1520 1522 1523 1522 1521 1522 1521 1520 1519 1516 1516 1518 1520 1521 1520 1521 1523 1523 1521 1518 1519 1522 1522 1521 1520 1518 1516 1513 1513 1515 1512 1512 1525 1531 1525 1526 1531 1532 1534 1536 1536 1537 1539 1539 1540 1540 1539 1540 1539 1538 1537 1536
1509 1511 1512 1510 1510 1509 1509 1510 1510 1509 1509 1510 1512 1514 1512 1511 1512 1513 1513 1513 1513 1512 1511 1513 1513 1511 1512 1512 1512 1515 1518 1517 1520 1522 1521 1521 1522 1521 1522 1522 1521 1522 1521 1520 1521 1518 1516 1520 1522 1522 1524 1524 1523 1523 1523 1522 1523 1524 1523 1524 1523 1521 1520 1519 1519 1520 1518 1517 1525 1531 1527 1526 1530 1531 1535 1537 1537 1538 1540 1541 1542 1542 1541 1541 1540 1539 1538 1538
1511 1512 1513 1512 1512 1512 1513 1514 1512 1511 1511 1512 1514 1514 1513 1513 1515 1515 1514 1514 1514 1513 1512 1515 1516 1515 1514 1514 1514 1517 1520 1519 1522 1525 1523 1523 1524 1522 1522 1523 1522 1522 1522 1520 1522 1521 1519 1523 1525 1524 1526 1528 1527 1526 1526 1525 1525 1525 1525 1525 1525 1524 1523 1523 1521 1520 1521 1522 1524 1527 1529 1529 1530 1533 1536 1539 1539 1540 1541 1543 1543 1544 1543 1542 1541 1541 1540 1540
1513 1513 1514 1513 1513 1514 1515 1515 1513 1512 1513 1514 1516 1517 1516 1515 1516 1517 1516 1516 1516 1516 1515 1516 1517 1516 1516 1516 1516 1519 1521 1520 1521 1525 1525 1525 1525 1524 1524 1525 1524 1523 1523 1522 1523 1523 1522 1526 1527 1524 1526 1530 1530 1528 1527 1527 1527 1526 1526 1526 1526 1526 1525 1524 1523 1522 1523 1526 1526 1528 1533 1535 1535 1535 1537 1540 1541 1541 1542 1544 1545 1545 1545 1544 1543 1543 1543 1543
1515 1515 1514 1513 1514 1516 1516 1516 1514 1513 1514 1515 1517 1518 1518 1518 1518 1519 1520 1519 1519 1518 1518 1518 1519 1519 1519 1520 1520 1522 1523 1522 1522 1525 1526 1525 1526 1526 1526 1527 1526 1525 1524 1525 1525 1523 1523 1527 1528 1525 1525 1527 1529 1529 1528 1527 1527 1527 1527 1526 1526 1526 1525 1524 1524 1524 1524 1526 1529 1530 1532 1535 1536 1536 1538 1541 1541 1542 1544 1545 1545 1546 1546 1545 1545 1545 1545 1545
1517 1517 1516 1514 1515 1517 1516 1515 1514 1514 1516 1518 1519 1519 1520 1521 1521 1521 1522 1523 1522 1521 1522 1521 1520 1520 1522 1524 1525 1526 1526 1526 1526 1527 1527 1527 1527 1527 1527 1528 1528 1527 1526 1526 1526 1525 1524 1525 1527 1526 1524 1525 1528 1529 1528 1528 1529 1527 1524 1524 1525 1525 1525 1526 1527 1528 1527 1526 1527 1527 1527 1531 1535 1536 1538 1540 1540 1543 1546 1547 1546 1547 1547 1547 1547 1547 1546 1547